Home   Weather   Al-Jamiliyah   Past weeks

Flag for Qatar Past Weather in Al-Jamiliyah, Qatar — Yesterday and Last 2 Weeks

Now
109 °F

Passing clouds.


Feels Like: 110 °F
Forecast: 89 / 104 °F
Wind: 6 mph from Northwest

Location: Doha International Airport

Current Time: Aug 31, 2016 at 11:10:18 AM

Latest Report: Aug 31, 2016 at 11:00 AM


Visibility: N/A

Pressure: 29.59 "Hg

Humidity: 19%

Dew Point: 59 °F

Location of Al-JamiliyahLocation

Past Weather in Al-Jamiliyah — Graph

°F

Al-Jamiliyah Temperature Yesterday

Maximum temperature yesterday: 108 °F (at 2:00 PM)
Minimum temperature yesterday: 88 °F (at 1:00 AM)
Average temperature yesterday: 97 °F

High & Low Weather Summary for the Past Weeks

 TemperatureHumidityPressure
High109 °F (Aug 24, 1:00 PM)89% (Aug 24, 3:00 AM)29.71 "Hg (Aug 24, 3:00 AM)
Low88 °F (Aug 30, 1:00 AM)15% (Aug 30, 2:00 PM)29.42 "Hg (Aug 17, 2:00 AM)
Average97 °F59%29.56 "Hg
* Reported Aug 16 10:00 AM — Aug 31 10:00 AM, Al-Jamiliyah, Weather by CustomWeather, © 2016

Note: Actual official high and low records may vary slightly from our data, if they occured in-between our weather recording intervals... More about our weather records

Advertising

Al-Jamiliyah Weather History for the Previous 24 Hours

Scroll right to see more
 ConditionsComfort  
Time TempWeatherWind HumidityBarometerVisibility
10:00 AM
Wed, Aug 31
104 °FClear.5 mph29%29.62 "Hg6 mi
9:00 AM100 °FPassing clouds.6 mph42%29.62 "HgN/A
8:00 AM97 °FPassing clouds.5 mph56%29.62 "HgN/A
6:00 AM91 °FClear.3 mph80%29.59 "Hg5 mi
5:00 AM90 °FClear.2 mph79%29.56 "Hg6 mi
4:00 AM90 °FClear.No wind79%29.56 "Hg10 mi
3:00 AM90 °FClear.6 mph79%29.56 "Hg10 mi
2:00 AM90 °FPassing clouds.3 mph75%29.56 "HgN/A
1:00 AM91 °FClear.5 mph71%29.56 "Hg10 mi
12:00 AM91 °FPassing clouds.5 mph67%29.56 "HgN/A
11:00 PM
Tue, Aug 30
95 °FClear.5 mph60%29.56 "Hg10 mi
10:00 PM93 °FClear.3 mph67%29.59 "Hg10 mi
9:00 PM95 °FClear.3 mph63%29.59 "Hg10 mi
8:00 PM97 °FClear.5 mph56%29.59 "Hg10 mi
7:00 PM97 °FClear.5 mph53%29.56 "Hg10 mi
6:00 PM99 °FClear.6 mph47%29.56 "Hg10 mi
5:00 PM102 °FSunny.8 mph37%29.56 "Hg10 mi
4:00 PM102 °FSunny.8 mph42%29.56 "Hg10 mi
3:00 PM106 °FSunny.10 mph26%29.56 "Hg10 mi
2:00 PM108 °FSunny.13 mph15%29.56 "Hg10 mi
1:00 PM104 °FSunny.14 mph45%29.59 "Hg10 mi
12:00 PM106 °FClear.15 mph45%29.59 "Hg5 mi
11:00 AM104 °FClear.13 mph54%29.62 "Hg4 mi
Weather by CustomWeather, © 2016

See weather overviewHow to use our weather pages